Content
SEND FEEDBACK

Daily
Averages
Monthly
Summary
United States of America

SIOUX FALLS, SOUTH DAKOTA


Home > North America > United States > South Dakota
Elevation: 1418 feet     Latitude: 43 34N     Longitude: 096 44W

WEATHER
 
SELECT A DAY
Number of Records: 202,899;   Date Range: 1/1/95 - 7/23/14
 
SHARE

PRINT THIS DATA

[ ← Previous Day ]
WEATHER ALMANAC - FEBRUARY 8, 2013
[ Next Day → ]
[ °C ]   °F
Weather ElementAverageHighLow
Temperature24.8 °F30.9 °F (4:56 pm)19.9 °F (5:56 am)
Dewpoint21.4 °F24.8 °F (11:49 pm)19 °F (1:56 am)
Humidity87.4 %100 % (6:56 am)72 % (4:56 pm)
Barometer30.23 in30.35 in (6:56 am)30.04 in (11:49 pm)
Wind Speed12.6 mph19.6 mph (3:08 pm)
Wind Gust28.8 mph (9:56 pm)
Weather ElementAverage
Visibility7.9 mi
Wind DirectionSSE (141.7 °)

Weather ElementTotal
Precipitation---
Heating Degree Days39.6 (Base 65)
Averaged from 29 records on February 8, 2013
WEATHER CONDITIONS BREAKOUT
WIND DIRECTION BREAKOUT
WEATHER BY HOUR - FEBRUARY 8, 2013
[ °C ]   °F
Local TimeTemperatureDewpointHumidityBarometerVisibilityWind DirectionWind SpeedGust SpeedPrecipitationEventsConditions
1:56 AM21.9 °F19.0 °F89 %30.34 in7.0 miNorthOvercast
2:56 AM21.9 °F19.9 °F92 %30.34 in8.0 miESE (110°)4.6 mphOvercast
3:56 AM21.0 °F19.9 °F96 %30.33 in9.0 miSE (130°)3.5 mphOvercast
4:56 AM21.0 °F19.0 °F92 %30.33 in9.0 miCalmOvercast
5:47 AM21.2 °F19.4 °F93 %30.25 in9.0 miESE (120°)9.2 mphOvercast
5:56 AM19.9 °F19.0 °F96 %30.33 in10.0 miSSE (150°)10.4 mphOvercast
6:56 AM19.9 °F19.9 °F100 %30.35 in7.0 miSSE (150°)6.9 mphOvercast
7:56 AM21.0 °F19.9 °F96 %30.34 in6.0 miSSE (150°)9.2 mphOvercast
8:56 AM21.0 °F19.9 °F96 %30.35 in6.0 miSSE (150°)6.9 mphOvercast
9:50 AM21.2 °F19.4 °F93 %30.26 in2.0 miSSE (150°)9.2 mphOvercast
9:56 AM21.0 °F19.9 °F96 %30.34 in2.0 miSSE (150°)13.8 mphOvercast
10:48 AM21.2 °F19.4 °F93 %30.27 in3.0 miSSE (160°)13.8 mphOvercast
10:56 AM21.9 °F19.9 °F92 %30.35 in3.0 miSouth (180°)12.7 mphOvercast
11:56 AM23.0 °F21.0 °F92 %30.33 in3.0 miSSE (160°)10.4 mphOvercast
12:56 PM24.1 °F21.0 °F88 %30.29 in9.0 miSSE (160°)12.7 mphOvercast
1:56 PM26.1 °F21.9 °F84 %30.25 in10.0 miSSE (160°)16.1 mphOvercast
2:56 PM28.0 °F23.0 °F81 %30.20 in10.0 miSSE (150°)15.0 mphOvercast
3:08 PM26.6 °F23.0 °F86 %30.13 in10.0 miSSE (160°)19.6 mph23.0 mphMostly Cloudy
3:41 PM28.4 °F23.0 °F80 %30.12 in10.0 miSSE (160°)17.3 mphScattered Clouds
3:56 PM28.9 °F23.0 °F78 %30.17 in10.0 miSSE (150°)16.1 mph24.2 mphPartly Cloudy
4:56 PM30.9 °F23.0 °F72 %30.15 in10.0 miSSE (150°)15.0 mphClear
5:56 PM30.9 °F23.0 °F72 %30.14 in10.0 miSSE (160°)17.3 mphClear
6:56 PM30.9 °F23.0 °F72 %30.13 in10.0 miSSE (150°)13.8 mphClear
7:56 PM30.0 °F23.0 °F75 %30.13 in10.0 miSSE (150°)15.0 mph26.5 mphClear
8:56 PM28.9 °F23.0 °F78 %30.12 in10.0 miSSE (160°)17.3 mph25.3 mphClear
9:56 PM27.0 °F23.0 °F85 %30.13 in10.0 miSSE (160°)16.1 mph28.8 mphPartly Cloudy
10:56 PM27.0 °F23.0 °F85 %30.12 in9.0 miSSE (160°)16.1 mph23.0 mphMostly Cloudy
11:49 PM26.6 °F24.8 °F93 %30.04 in9.0 miSSE (160°)17.3 mph25.3 mphScattered Clouds
11:56 PM27.0 °F24.1 °F89 %30.10 in9.0 miSSE (160°)18.4 mph24.2 mphMostly Cloudy
Hourly data recorded from KFSD, located miles away from Sioux Falls, South Dakota







STORIES FROM OUR PARTNERS